Location: Eppenreuth
(49.7822°N, 12.2078°E)
Time: 23:42:36
(UTC+00:00)

Daily predictions for brighter satellites

Satellite Brightness Start Highest point End
(mag) Time Altitude Azimuth Time Altitude Azimuth Time Altitude Azimuth
STARLINK-1197 4.1 19:50:21 10° WNW 19:54:28 62° NNE 19:58:35 10° E
Cosmos 1486 Rocket 4.4 19:50:38 10° NNW 19:55:51 53° ENE 20:00:58 10° SE
SPOT 1/Viking Rocket 3.9 19:50:54 10° SE 19:55:53 53° ENE 20:00:53 10° N
SL-27 R/B 2.7 19:52:34 10° NNW 19:56:07 56° ENE 19:59:33 10° SE
STARLINK-1236 4.4 19:52:24 10° W 19:56:28 54° N 20:00:33 10° ENE
Cosmos 1092 Rocket 4.4 19:50:56 10° SSE 19:56:42 45° E 20:02:32 10° NNE
Cosmos 1842 4.5 19:54:20 10° SE 19:57:34 25° E 20:00:47 10° NNE
Cosmos 1975 Rocket 3.9 19:55:05 10° SSE 19:59:02 33° E 20:02:59 10° NNE
STARLINK-1198 4.1 19:55:20 10° WNW 19:59:28 63° NNE 20:03:35 10° E
STARLINK-1212 2.9 19:59:00 10° WNW 20:02:09 72° SSW 20:05:16 10° ESE
Cosmos 1943 Rocket 2.2 19:57:13 10° SSW 20:02:40 61° ESE 20:08:13 10° NE
STARLINK-1105 2.9 19:59:38 10° WNW 20:02:48 71° SSW 20:05:57 10° ESE
STARLINK-1247 3.0 20:00:43 10° WNW 20:03:55 70° SSW 20:07:05 10° ESE
STARLINK-1199 4.0 20:00:19 10° WNW 20:04:27 65° NNE 20:08:34 10° E
STARLINK-1227 3.0 20:01:20 10° WNW 20:04:31 69° SSW 20:07:41 10° ESE
STARLINK-1226 3.0 20:02:30 10° WNW 20:05:40 68° SSW 20:08:50 10° ESE
STARLINK-1269 4.4 20:02:24 10° W 20:06:28 53° N 20:10:33 10° ENE
STARLINK-1215 3.0 20:03:32 10° WNW 20:06:44 67° SSW 20:09:55 10° SE
NOSS 2-2 (C) 3.5 20:05:25 10° SW 20:08:59 71° NW 20:13:08 10° NE
STARLINK-1217 3.0 20:05:48 10° WNW 20:09:00 65° SSW 20:12:10 10° SE
STARLINK-1210 4.0 20:05:18 10° WNW 20:09:26 67° NNE 20:13:34 10° E
STARLINK-1229 3.0 20:06:54 10° WNW 20:10:06 64° SSW 20:13:15 10° SE
Cosmos 1271 Rocket 4.4 20:08:04 10° SE 20:10:51 19° E 20:13:38 10° NE
STARLINK-1270 3.1 20:08:01 10° WNW 20:11:11 63° SSW 20:14:20 10° SE
STARLINK-1200 4.4 20:07:23 10° W 20:11:28 53° N 20:15:33 10° ENE
STARLINK-1189 3.1 20:10:23 10° WNW 20:13:34 61° SSW 20:16:39 11° SE
NOSS 3-2 (A) 4.4 20:06:51 10° NW 20:14:13 64° SW 20:22:30 10° SSE
STARLINK-1219 3.9 20:10:19 10° WNW 20:14:28 70° NNE 20:18:36 10° E
STARLINK-1188 3.1 20:11:35 10° WNW 20:14:46 59° SSW 20:17:49 11° SE
ATLAS 2AS CENTAUR R/B 3.4 20:07:58 10° S 20:15:20 44° ESE 20:22:44 10° NE
SL-4 R/B 2.4 20:11:03 10° SW 20:15:40 59° SSE 20:20:27 10° ENE
STARLINK-1192 4.4 20:12:24 10° WNW 20:16:29 53° N 20:20:33 10° ENE
STARLINK-1191 3.2 20:14:12 10° WNW 20:17:21 57° SSW 20:20:17 11° SE
STARLINK-1221 3.2 20:15:27 10° WNW 20:18:36 56° SSW 20:21:29 12° SE
STARLINK-1211 3.8 20:15:17 10° WNW 20:19:26 72° NNE 20:23:35 10° ESE
STARLINK-1222 3.2 20:16:37 10° WNW 20:19:46 55° SSW 20:22:37 12° SE
STARLINK-1214 3.2 20:17:53 10° WNW 20:21:02 54° SSW 20:23:52 12° SE
Landsat 7 3.9 20:16:32 10° SSE 20:21:18 84° WSW 20:26:06 10° NNW
STARLINK-1244 4.4 20:17:23 10° WNW 20:21:27 53° N 20:25:32 10° E
Cosmos 1242 Rocket 3.5 20:18:30 10° SSE 20:21:47 31° E 20:25:05 10° NNE
Cosmos 1656 Rocket 4.4 20:17:12 10° S 20:22:11 34° ESE 20:27:08 10° NE
Cosmos 1707 4.4 20:20:12 11° SE 20:22:48 18° E 20:25:32 10° NE
ERS-1 Rocket 3.1 20:19:14 10° SSE 20:24:13 67° ENE 20:29:15 10° N
STARLINK-1245 3.8 20:20:15 10° WNW 20:24:24 75° NNE 20:28:33 10° ESE
STARLINK-29 3.2 20:21:38 10° SW 20:24:46 47° SSE 20:27:52 10° ENE
Okean 1 Rocket 4.1 20:20:37 10° NNW 20:24:51 44° W 20:29:01 10° SSW
Cosmos 1455 Rocket 3.2 20:21:06 10° N 20:25:25 60° ENE 20:29:27 11° SSE
STARLINK-1138 4.4 20:22:22 10° WNW 20:26:27 53° N 20:30:31 10° E
Cosmos 1758 4.3 20:23:55 10° N 20:27:42 35° ENE 20:31:01 13° SE
USA 238 DEB 4.4 20:22:16 10° NW 20:29:13 52° WSW 20:36:22 10° SSE
USA 238 4.4 20:22:22 10° NW 20:29:18 53° WSW 20:36:29 10° SSE
STARLINK-1233 3.7 20:25:14 10° WNW 20:29:24 78° NNE 20:33:33 10° ESE
STARLINK-1209 4.0 20:28:08 10° WNW 20:31:27 38° SW 20:34:08 14° SSE
STARLINK-1143 4.4 20:27:23 10° WNW 20:31:27 54° N 20:35:32 10° E
Cosmos 968 Rocket 3.5 20:28:08 10° NNW 20:33:19 81° ENE 20:37:57 13° SSE
IGS 5A 3.9 20:30:10 10° S 20:34:16 60° W 20:38:24 10° NNW
STARLINK-1204 3.7 20:30:13 10° WNW 20:34:22 81° NNE 20:38:32 10° ESE
Cosmos 2026 Rocket 4.1 20:28:26 10° S 20:34:40 64° E 20:40:59 10° NNE
Meteor 1-21 4.5 20:29:19 10° SSE 20:34:43 51° E 20:40:07 10° NNE
ATLAS CENTAUR R/B 2.0 20:31:16 10° S 20:35:17 36° ESE 20:39:05 10° NE
Okean 2 3.4 20:32:03 10° S 20:36:13 87° E 20:40:24 10° N
STARLINK-1241 4.4 20:32:23 10° WNW 20:36:28 54° N 20:40:33 10° E
Cosmos 2369 Rocket 2.2 20:32:22 10° SSW 20:38:01 81° ESE 20:43:42 10° NNE
CARTOSAT-1 3.6 20:34:06 12° SSE 20:38:08 81° ENE 20:42:28 10° NNW
Cosmos 2227 Rocket 4.4 20:35:29 10° N 20:39:11 17° NNE 20:42:52 10° ENE
STARLINK-1238 3.6 20:35:12 10° WNW 20:39:22 84° NNE 20:43:31 10° ESE
Cosmos 1867 3.6 20:33:56 10° NW 20:39:26 87° SW 20:44:11 14° SE
STARLINK-1320 4.1 20:38:04 10° SSW 20:40:33 22° SE 20:43:03 10° E
STARLINK-1322 4.1 20:38:24 10° SSW 20:40:54 22° SE 20:43:25 10° E
STARLINK-1324 4.1 20:38:43 10° SSW 20:41:13 22° SE 20:43:44 10° E
STARLINK-1239 4.4 20:37:23 10° WNW 20:41:28 55° N 20:45:33 10° E
STARLINK-1294 4.0 20:39:02 10° SSW 20:41:32 22° SE 20:44:02 10° E
STARLINK-1187 3.9 20:38:33 10° WNW 20:41:39 36° SW 20:43:50 16° SSE
STARLINK-1261 4.0 20:39:23 10° SSW 20:41:54 23° SE 20:44:26 10° E
Cosmos 1766 4.2 20:38:06 10° NNW 20:41:58 47° W 20:45:47 10° SSW
STARLINK-1325 4.0 20:39:43 10° SSW 20:42:15 23° SE 20:44:47 10° E
STARLINK-1333 4.0 20:40:05 10° SSW 20:42:37 23° SE 20:45:10 10° E
Cosmos 1553 Rocket 4.2 20:36:40 10° N 20:42:50 57° ENE 20:48:07 14° SSE
STARLINK-1334 4.0 20:40:22 10° SSW 20:42:54 23° SE 20:45:27 10° E
STARLINK-1326 4.0 20:40:41 10° SSW 20:43:14 23° SE 20:45:47 10° E
STARLINK-1323 4.0 20:41:03 10° SSW 20:43:36 23° SE 20:46:09 10° E
STARLINK-1349 4.0 20:41:20 10° SSW 20:43:53 23° SE 20:46:27 10° E
STARLINK-1336 4.0 20:41:40 10° SSW 20:44:13 23° SE 20:46:48 10° E
STARLINK-1201 3.6 20:40:11 10° WNW 20:44:21 88° NNE 20:48:22 11° ESE
STARLINK-1331 4.0 20:42:02 10° SSW 20:44:36 24° SE 20:47:11 10° E
STARLINK-1344 4.0 20:42:20 10° SSW 20:44:54 24° SE 20:47:29 10° E
STARLINK-1343 4.0 20:42:42 10° SSW 20:45:16 24° SE 20:47:51 10° E
STARLINK-1234 4.2 20:42:14 10° WNW 20:45:30 33° SW 20:47:47 16° SSE
STARLINK-1346 4.0 20:42:58 10° SSW 20:45:35 24° SE 20:48:11 10° E
STARLINK-1328 3.9 20:43:24 10° SSW 20:45:59 24° SE 20:48:35 10° E
STARLINK-1354 3.9 20:43:41 10° SSW 20:46:17 24° SE 20:48:53 10° E
STARLINK-1240 4.3 20:42:21 10° WNW 20:46:26 55° N 20:50:32 10° E
STARLINK-1347 3.9 20:43:58 10° SSW 20:46:34 24° SE 20:49:11 10° E
STARLINK-1357 3.9 20:44:23 10° SSW 20:46:59 24° SE 20:49:36 10° E
STARLINK-1335 3.9 20:44:40 10° SSW 20:47:16 25° SE 20:49:54 10° E
STARLINK-1327 3.9 20:45:01 10° SSW 20:47:37 25° SE 20:50:15 10° E
STARLINK-1340 3.9 20:45:18 10° SSW 20:47:56 25° SE 20:50:34 10° E
STARLINK-1356 3.9 20:45:41 10° SSW 20:48:18 25° SE 20:50:56 10° E
STARLINK-1345 3.9 20:45:59 10° SSW 20:48:37 25° SE 20:51:15 10° E
STARLINK-1355 3.9 20:46:19 10° SSW 20:48:58 25° SE 20:51:37 10° E
STARLINK-1321 3.9 20:46:40 10° SSW 20:49:18 25° SE 20:51:58 10° E
STARLINK-1206 3.6 20:45:09 10° WNW 20:49:18 88° SSW 20:53:07 12° ESE
STARLINK-1358 3.9 20:47:02 10° SSW 20:49:41 26° SE 20:52:21 10° E
STARLINK-1332 3.8 20:47:19 10° SSW 20:49:58 26° SE 20:52:38 10° E
STARLINK-1348 3.8 20:47:39 10° SSW 20:50:18 26° SE 20:52:58 10° E
STARLINK-1330 3.8 20:47:58 10° SSW 20:50:38 26° SE 20:53:19 10° E
STARLINK-1228 4.4 20:47:31 10° W 20:50:48 31° SW 20:53:01 17° SSE
STARLINK-1363 3.8 20:48:18 10° SSW 20:50:57 26° SE 20:53:38 10° E
STARLINK-1337 3.8 20:48:40 10° SSW 20:51:20 26° SE 20:54:01 10° E
STARLINK-1216 4.3 20:47:21 10° WNW 20:51:27 56° N 20:55:33 10° E
STARLINK-1338 4.4 20:48:14 10° SSW 20:51:36 26° SE 20:54:58 10° E
STARLINK-1342 3.8 20:48:59 10° SSW 20:51:40 26° SE 20:54:21 10° E
STARLINK-1364 3.8 20:49:19 10° SSW 20:52:00 27° SE 20:54:41 10° E
STARLINK-1376 3.8 20:49:38 10° SSW 20:52:20 27° SE 20:55:02 10° E
STARLINK-1360 3.8 20:49:58 10° SSW 20:52:40 27° SE 20:55:23 10° E
STARLINK-1361 3.8 20:50:19 10° SSW 20:53:01 27° SE 20:55:43 10° E
STARLINK-1367 3.8 20:50:35 10° SSW 20:53:18 27° SE 20:56:01 10° E
STARLINK-1366 3.8 20:50:57 10° SSW 20:53:39 27° SE 20:56:23 10° E
STARLINK-1205 3.6 20:50:07 10° WNW 20:54:17 84° SSW 20:57:54 13° ESE
Resurs 01 Rocket 4.0 20:51:30 10° SW 20:54:34 18° W 20:57:38 10° NW
STARLINK-1237 4.2 20:52:20 10° WNW 20:56:26 57° N 21:00:32 10° E
Cosmos 1536 Rocket 4.1 20:55:59 17° SSE 20:58:59 41° E 21:03:07 10° NNE
STARLINK-1218 3.6 20:55:07 10° WNW 20:59:16 80° SSW 21:02:42 15° ESE
STARLINK-1371 4.3 20:56:29 10° SSW 20:59:58 30° SE 21:03:28 10° E
STARLINK-52 2.8 20:56:52 10° WSW 21:00:03 74° SSE 21:03:17 10° ENE
STARLINK-1202 4.2 20:57:20 10° WNW 21:01:27 58° N 21:05:33 10° E
ATLAS CENTAUR R/B 3.3 21:01:25 10° NNW 21:02:36 15° NNE 21:03:57 10° ENE
SPOT 5 3.3 20:57:53 13° S 21:02:40 70° WSW 21:08:02 10° NNW
Cosmos 1544 Rocket 3.6 20:58:34 10° NNW 21:02:57 80° W 21:06:25 16° S
CENTAUR R/B 3.5 20:56:04 10° NW 21:03:54 58° WSW 21:11:10 15° SSE
STARLINK-1341 4.2 21:00:40 10° SSW 21:04:14 32° SE 21:07:49 10° ENE
STARLINK-1254 3.6 21:00:06 10° WNW 21:04:15 76° SSW 21:07:29 16° ESE
STARLINK-1203 4.2 21:02:06 10° WNW 21:06:13 60° N 21:10:20 10° E
BREEZE-M DEB 3.0 21:03:35 10° WSW 21:06:17 64° SSE 21:13:39 10° ENE
Terra 1.8 21:02:43 16° SSE 21:06:33 83° WSW 21:11:20 10° NNW
USA 215 4.2 21:01:36 10° E 21:07:51 50° N 21:14:06 10° WNW
STARLINK-1374 4.1 21:04:51 10° SSW 21:08:28 34° SE 21:12:06 10° ENE
STARLINK-1231 3.6 21:05:05 10° WNW 21:09:14 72° SSW 21:12:15 18° SE
Cosmos 2292 Rocket 4.5 21:08:27 17° ESE 21:09:24 19° E 21:11:40 10° NE
STARLINK-1246 4.1 21:07:19 10° WNW 21:11:26 61° N 21:15:33 10° E
ATLAS 3B R/B 2.7 21:05:42 10° NW 21:12:31 86° SW 21:18:06 17° SE
Cosmos 1726 2.6 21:08:57 10° N 21:12:35 48° ENE 21:14:42 22° SE
STARLINK-1339 4.0 21:09:04 10° SSW 21:12:45 36° SE 21:16:27 10° ENE
Cosmos 1655 Rocket 4.2 21:09:10 16° SSE 21:14:07 57° E 21:20:17 10° NNE
STARLINK-1232 3.6 21:10:06 10° WNW 21:14:14 68° SSW 21:17:04 19° SE
STARLINK-1224 4.1 21:12:17 10° WNW 21:16:25 63° NNE 21:20:32 10° E
STARLINK-1377 4.0 21:13:19 10° SSW 21:17:03 38° SE 21:20:46 10° ENE
Cosmos 1503 Rocket 4.3 21:12:22 10° NNW 21:17:39 63° WSW 21:21:37 18° S
STARLINK-1208 3.6 21:15:04 10° WNW 21:19:11 64° SSW 21:21:50 21° SE
Cosmos 1674 4.2 21:18:37 18° ESE 21:20:04 23° E 21:23:06 10° NE
STARLINK-1444 2.9 21:18:01 10° W 21:20:05 48° NNW 21:22:12 10° ENE
Cosmos 1470 3.2 21:16:35 10° NNW 21:20:23 55° W 21:23:07 17° SSW
STARLINK-1452 2.9 21:18:41 10° W 21:20:43 48° NNW 21:22:49 10° ENE
STARLINK-1353 3.9 21:17:33 10° SW 21:21:19 41° SE 21:25:06 10° ENE
STARLINK-1225 4.0 21:17:17 10° WNW 21:21:25 64° NNE 21:25:33 10° E
STARLINK-1392 2.9 21:19:37 10° W 21:21:36 46° NNW 21:23:38 10° ENE
STARLINK-1399 2.9 21:19:38 10° W 21:21:37 46° NNW 21:23:41 10° ENE
STARLINK-1393 2.9 21:19:40 10° W 21:21:40 46° NNW 21:23:42 10° ENE
STARLINK-1394 2.9 21:19:41 10° W 21:21:41 46° NNW 21:23:44 10° ENE
STARLINK-1397 2.9 21:19:44 10° W 21:21:43 46° NNW 21:23:47 10° ENE
STARLINK-1395 2.9 21:19:46 10° W 21:21:43 46° NNW 21:23:45 10° ENE
STARLINK-1396 2.9 21:19:45 10° W 21:21:44 46° NNW 21:23:47 10° ENE
STARLINK-1414 2.9 21:19:46 10° W 21:21:45 46° NNW 21:23:47 10° ENE
STARLINK-1408 2.9 21:19:48 10° W 21:21:48 46° NNW 21:23:50 10° ENE
STARLINK-1404 2.9 21:19:48 10° W 21:21:48 46° NNW 21:23:52 10° ENE
STARLINK-1416 2.9 21:19:50 10° W 21:21:49 46° NNW 21:23:52 10° ENE
STARLINK-1415 2.9 21:19:49 10° W 21:21:50 46° NNW 21:23:53 10° ENE
STARLINK-1450 2.9 21:19:50 10° W 21:21:52 46° NNW 21:23:54 10° ENE
STARLINK-1406 2.9 21:19:54 10° W 21:21:54 46° NNW 21:23:55 10° ENE
STARLINK-1401 2.9 21:19:53 10° W 21:21:54 46° NNW 21:23:57 10° ENE
STARLINK-1417 2.9 21:19:56 10° W 21:21:57 46° NNW 21:24:00 10° ENE
STARLINK-1419 2.9 21:19:58 10° W 21:21:58 46° NNW 21:24:01 10° ENE
STARLINK-1402 2.9 21:19:57 10° W 21:21:58 46° NNW 21:24:01 10° ENE
STARLINK-1413 2.9 21:19:57 10° W 21:21:58 46° NNW 21:24:01 10° ENE
STARLINK-1422 2.9 21:20:03 10° W 21:22:03 46° NNW 21:24:07 10° ENE
STARLINK-1453 2.9 21:20:03 10° W 21:22:05 46° NNW 21:24:08 10° ENE
STARLINK-1398 2.9 21:20:03 10° W 21:22:06 47° NNW 21:24:10 10° ENE
STARLINK-1420 2.9 21:20:06 10° W 21:22:07 46° NNW 21:24:11 10° ENE
STARLINK-1440 2.9 21:20:07 10° W 21:22:07 46° NNW 21:24:11 10° ENE
STARLINK-1436 (VISORSAT) 2.9 21:20:06 10° W 21:22:08 47° NNW 21:24:13 10° ENE
STARLINK-1460 2.9 21:20:09 10° W 21:22:10 46° NNW 21:24:14 10° ENE
Meteor 2-10 3.9 21:17:10 10° N 21:22:14 82° ENE 21:25:45 20° SSE
STARLINK-1410 2.9 21:20:14 10° W 21:22:14 46° NNW 21:24:18 10° ENE
STARLINK-1423 2.9 21:20:15 10° W 21:22:15 46° NNW 21:24:17 10° ENE
STARLINK-1421 2.9 21:20:15 10° W 21:22:15 46° NNW 21:24:17 10° ENE
STARLINK-1400 2.9 21:20:14 10° W 21:22:15 46° NNW 21:24:18 10° ENE
STARLINK-1454 2.9 21:20:15 10° W 21:22:15 46° NNW 21:24:19 10° ENE
STARLINK-1458 2.9 21:20:18 10° W 21:22:17 46° NNW 21:24:21 10° ENE
STARLINK-1445 2.9 21:20:19 10° W 21:22:20 46° NNW 21:24:24 10° ENE
STARLINK-1446 2.9 21:20:22 10° W 21:22:23 46° NNW 21:24:26 10° ENE
STARLINK-1407 2.9 21:20:22 10° W 21:22:23 46° NNW 21:24:26 10° ENE
STARLINK-1405 2.9 21:20:26 10° W 21:22:23 45° NNW 21:24:25 10° ENE
STARLINK-1370 2.9 21:20:24 10° W 21:22:25 46° NNW 21:24:29 10° ENE
STARLINK-1456 2.9 21:20:26 10° W 21:22:26 46° NNW 21:24:29 10° ENE
STARLINK-1457 2.9 21:20:26 10° W 21:22:26 46° NNW 21:24:29 10° ENE
STARLINK-1451 2.9 21:20:26 10° W 21:22:26 46° NNW 21:24:29 10° ENE
STARLINK-1409 2.9 21:20:27 10° W 21:22:27 46° NNW 21:24:30 10° ENE
STARLINK-1439 2.9 21:20:29 10° W 21:22:27 45° NNW 21:24:28 10° ENE
STARLINK-1437 2.9 21:20:27 10° W 21:22:28 46° NNW 21:24:31 10° ENE
STARLINK-1447 2.9 21:20:27 10° W 21:22:28 46° NNW 21:24:31 10° ENE
STARLINK-1455 2.9 21:20:27 10° W 21:22:28 46° NNW 21:24:31 10° ENE
STARLINK-1441 2.9 21:20:29 10° W 21:22:29 46° NNW 21:24:33 10° ENE
STARLINK-1443 2.9 21:20:31 10° W 21:22:32 46° NNW 21:24:36 10° ENE
STARLINK-1351 2.9 21:20:33 10° W 21:22:34 46° NNW 21:24:38 10° ENE
STARLINK-1418 2.9 21:20:33 10° W 21:22:34 46° NNW 21:24:38 10° ENE
STARLINK-1442 2.9 21:20:34 10° W 21:22:35 46° NNW 21:24:38 10° ENE
STARLINK-1403 2.9 21:20:33 10° W 21:22:35 46° NNW 21:24:39 10° ENE
STARLINK-1434 2.9 21:20:33 10° W 21:22:35 46° NNW 21:24:39 10° ENE
STARLINK-1448 2.9 21:20:36 10° W 21:22:36 46° NNW 21:24:40 10° ENE
STARLINK-1433 2.9 21:20:37 10° W 21:22:37 46° NNW 21:24:41 10° ENE
STARLINK-1449 2.9 21:20:38 10° W 21:22:39 46° NNW 21:24:43 10° ENE
STARLINK-1438 2.9 21:20:41 10° W 21:22:42 46° NNW 21:24:45 10° ENE
STARLINK-1411 3.0 21:20:48 10° W 21:22:49 46° NNW 21:24:52 10° ENE
STARLINK-1412 3.0 21:20:48 10° W 21:22:49 46° NNW 21:24:53 10° ENE
BREEZE-M DEB (TANK) 3.5 21:09:44 10° WSW 21:23:37 80° SSE 21:27:19 10° E
STARLINK-1271 3.7 21:20:03 10° WNW 21:24:09 60° SSW 21:26:37 22° SE
STARLINK-1375 3.8 21:21:50 10° SW 21:25:38 43° SE 21:29:28 10° ENE
SeaSat 1 3.9 21:22:53 10° ENE 21:26:22 19° ESE 21:27:48 17° SE
BREEZE-M DEB (TANK) 3.6 21:19:46 10° SSW 21:26:23 28° SSE 21:29:24 10° E
STARLINK-1230 4.0 21:22:15 10° WNW 21:26:24 67° NNE 21:30:32 10° E
FALCON 9 DEB 3.0 21:23:11 10° WSW 21:26:37 78° SSE 21:30:04 10° ENE
STARLINK-60 3.8 21:25:06 10° W 21:28:13 52° NNW 21:31:21 10° ENE
BREEZE-M DEB (TANK) 2.8 21:24:28 10° W 21:28:20 78° S 21:32:14 10° ESE
STARLINK-1154 3.8 21:25:02 10° WNW 21:29:05 56° SSW 21:31:22 24° SE
Cosmos 1174 3.4 21:26:27 10° SW 21:29:40 86° SE 21:33:37 10° NE
Cosmos 1340 Rocket 2.8 21:25:45 10° N 21:29:50 78° ENE 21:32:10 25° SSE
STARLINK-1350 3.7 21:26:06 10° SW 21:29:56 46° SSE 21:33:47 10° ENE
COSMOS 2455 2.8 21:25:19 10° SSW 21:31:18 75° ESE 21:37:21 10° NE
STARLINK-1243 3.9 21:27:16 10° WNW 21:31:24 69° NNE 21:35:33 10° E
Cosmos 1025 Rocket 3.1 21:30:38 17° SSW 21:33:58 78° W 21:38:19 10° N
STARLINK-1197 3.8 21:30:01 10° WNW 21:34:04 53° SSW 21:36:10 25° SSE
STARLINK-1352 3.7 21:30:24 10° SW 21:34:15 49° SSE 21:38:08 10° ENE
COSMOS 2487 2.8 21:31:11 10° NNW 21:34:35 53° WSW 21:36:14 26° S
STARLINK-1236 3.8 21:32:14 10° WNW 21:36:23 71° NNE 21:40:32 10° ESE
NOSS 3-4 (A) 3.5 21:31:50 10° SW 21:37:49 82° NW 21:44:19 10° NE
NOSS 3-4 (C) 3.5 21:31:57 10° SW 21:37:56 82° NW 21:44:25 10° NE
STARLINK-1368 3.6 21:34:47 10° SW 21:38:41 52° SSE 21:42:37 10° ENE
STARLINK-1198 3.9 21:35:01 10° WNW 21:39:02 49° SSW 21:40:57 27° SSE
ALOS 2 4.0 21:37:12 16° ESE 21:39:57 30° ENE 21:43:46 10° N
Aureole 3 2.8 21:38:17 10° N 21:41:17 56° ENE 21:42:17 35° SE
MTI 4.3 21:38:32 10° N 21:41:37 54° WNW 21:43:39 19° SW
STARLINK-1369 3.5 21:39:09 10° SW 21:43:04 55° SSE 21:47:02 10° ENE
STARLINK-1199 4.0 21:40:00 10° WNW 21:43:59 46° SW 21:45:43 28° SSE
ATLAS 5 CENTAUR R/B 1.4 21:39:58 10° SW 21:44:43 55° SE 21:46:58 10° ENE
RESURS DK-1 2.5 21:42:40 25° S 21:44:50 53° ESE 21:48:53 10° NE
Cosmos 1953 2.5 21:41:13 10° NNW 21:45:11 66° W 21:47:21 25° S
EXPRESS MD2 4.1 21:41:12 10° W 21:45:11 89° N 21:53:38 10° E
ERBS 3.8 21:42:36 10° NW 21:45:41 34° NNE 21:48:47 10° E
STARLINK-1269 3.7 21:42:12 10° WNW 21:46:22 77° NNE 21:50:10 12° ESE
Cosmos 2297 Rocket 3.2 21:41:09 10° NNW 21:46:30 40° NE 21:51:12 13° ESE
Cosmos 1271 Rocket 3.9 21:42:55 11° SW 21:46:31 42° WNW 21:50:19 10° N
Cosmos 1943 Rocket 4.1 21:41:58 10° WSW 21:46:50 30° NW 21:51:45 10° NNE
Meteor 2-19 Rocket 4.4 21:42:44 20° S 21:47:10 75° E 21:53:16 10° NNE
CZ-4C R/B 3.9 21:46:26 13° ESE 21:47:16 13° ESE 21:49:47 10° ENE
Cosmos 1626 4.0 21:46:19 16° ESE 21:47:20 18° E 21:49:53 10° NE
STARLINK-1372 3.5 21:43:29 10° SW 21:47:26 59° SSE 21:51:24 10° ENE
STARLINK-1210 4.1 21:45:00 10° WNW 21:48:56 43° SW 21:50:30 29° SSE
Cosmos 2219 3.8 21:44:54 10° NNW 21:50:25 49° NE 21:54:40 16° SE
Lacrosse 4 Rocket 3.5 21:46:56 10° NNW 21:50:26 23° NE 21:53:50 10° E
STARLINK-1200 3.7 21:47:11 10° WNW 21:51:20 80° NNE 21:54:57 13° ESE
STARLINK-1378 3.5 21:47:54 10° SW 21:51:52 62° SSE 21:55:51 10° ENE
Cosmos 2228 3.2 21:47:46 10° N 21:51:58 57° ENE 21:54:03 27° SE
Spot 4 3.9 21:50:03 25° SSE 21:52:54 74° ENE 21:57:45 10° N
STARLINK-1219 4.2 21:50:02 10° WNW 21:53:56 40° SW 21:55:19 30° S
Cosmos 921 Rocket 3.9 21:52:46 25° SE 21:54:15 32° E 21:58:11 10° NE
SL-4 R/B 2.6 21:50:38 10° W 21:55:27 74° N 22:00:19 10° ENE
STARLINK-1379 3.4 21:52:20 10° SW 21:56:19 66° SSE 22:00:20 10° ENE
STARLINK-1192 3.6 21:52:11 10° WNW 21:56:20 83° NNE 21:59:45 15° ESE
Cosmos 1707 3.8 21:55:20 14° SW 21:58:23 41° WNW 22:02:05 10° N
STARLINK-1211 4.3 21:55:01 10° WNW 21:58:52 37° SW 22:00:05 30° S
STARLINK-1329 3.4 21:56:04 10° SW 22:00:04 69° SSE 22:04:06 10° ENE
STARLINK-29 3.7 21:57:44 10° W 22:00:54 54° N 22:04:03 10° ENE
STARLINK-1244 3.6 21:57:08 10° WNW 22:01:18 87° NNE 22:04:30 17° ESE
EO 1 Del DPAF 3.1 21:59:29 10° NNE 22:03:16 76° ESE 22:04:56 32° S
SL-4 R/B 2.1 22:03:43 26° ENE 22:03:43 26° ENE 22:05:34 10° N
STARLINK-1245 4.4 22:00:01 10° WNW 22:03:48 35° SW 22:04:51 30° S
STARLINK-1362 3.4 22:00:32 10° WSW 22:04:34 73° SSE 22:08:36 10° ENE
Meteor 2-15 4.5 21:59:24 10° NNW 22:05:33 78° W 22:09:27 24° S
Timation 2 Rocket 3.9 21:59:48 10° NNW 22:06:05 75° WSW 22:09:47 25° SSE
ATLAS 2AS CENTAUR R/B 3.5 21:58:15 10° WSW 22:06:13 65° NW 22:14:04 10° NE
STARLINK-1138 3.5 22:02:07 10° WNW 22:06:17 90° SSW 22:09:16 18° ESE
STARLINK-1233 4.5 22:05:02 10° WNW 22:08:46 33° SW 22:09:38 29° SSW
STARLINK-1373 3.4 22:05:03 10° WSW 22:09:05 77° SSE 22:13:08 10° ENE
STARLINK-1143 3.5 22:07:06 10° WNW 22:11:16 86° SSW 22:14:04 20° ESE
Okean 1-7 Rocket 4.4 22:09:54 26° SE 22:11:46 39° E 22:16:01 10° NNE
Cosmos 1726 Rocket 3.5 22:07:51 10° N 22:12:12 75° ENE 22:14:12 31° SSE
Helios 1A 4.2 22:10:56 19° ESE 22:13:16 33° ENE 22:17:02 10° N
STARLINK-1390 3.4 22:09:34 10° WSW 22:13:37 80° SSE 22:17:41 10° ENE
ATLAS CENTAUR R/B 2.9 22:10:12 10° WSW 22:14:11 37° NW 22:17:58 10° NNE
Cosmos 1697 Rocket 4.4 22:12:54 14° ESE 22:14:47 17° E 22:18:14 10° ENE
BREEZE-M R/B 4.1 22:05:58 10° SW 22:15:08 49° SSE 22:19:31 10° E
STARLINK-1320 2.9 22:12:59 10° WSW 22:16:06 80° NNW 22:19:14 10° ENE
STARLINK-1241 3.5 22:12:06 10° WNW 22:16:16 82° SSW 22:18:51 22° ESE
Cosmos 1892 Rocket 3.9 22:14:30 30° SSE 22:16:18 51° E 22:20:33 10° NNE
STARLINK-1322 2.9 22:13:19 10° WSW 22:16:27 80° NNW 22:19:35 10° ENE
STARLINK-1324 2.9 22:13:39 10° WSW 22:16:46 79° NNW 22:19:54 10° ENE
STARLINK-1294 2.9 22:13:58 10° WSW 22:17:05 79° NNW 22:20:13 10° ENE
Cosmos 2098 Rocket 4.4 22:12:13 22° S 22:17:27 85° E 22:24:48 10° N
STARLINK-1261 2.9 22:14:20 10° WSW 22:17:28 79° NNW 22:20:36 10° ENE
STARLINK-1325 2.9 22:14:41 10° WSW 22:17:48 79° NNW 22:20:56 10° ENE
STARLINK-1333 2.9 22:15:04 10° WSW 22:18:11 78° NNW 22:21:18 10° ENE
STARLINK-1334 2.9 22:15:21 10° WSW 22:18:28 78° NNW 22:21:36 10° ENE
STARLINK-1326 2.9 22:15:40 10° WSW 22:18:47 78° NNW 22:21:55 10° ENE
STARLINK-1323 2.9 22:16:03 10° WSW 22:19:10 77° NNW 22:22:18 10° ENE
STARLINK-1365 3.5 22:15:21 10° WSW 22:19:27 86° SSE 22:23:34 10° ENE
STARLINK-1349 2.9 22:16:21 10° WSW 22:19:28 77° NNW 22:22:36 10° ENE
STARLINK-1336 2.9 22:16:40 10° WSW 22:19:47 77° NNW 22:22:56 10° ENE
SJ 16-02 2.5 22:15:39 10° N 22:19:48 37° ENE 22:22:33 18° ESE
STARLINK-1331 2.9 22:17:03 10° WSW 22:20:10 76° NNW 22:23:18 10° ENE
STARLINK-1344 3.0 22:17:22 10° WSW 22:20:29 76° NNW 22:23:37 10° ENE
STARLINK-1343 3.0 22:17:44 10° WSW 22:20:51 76° NNW 22:23:59 10° ENE
STARLINK-1346 3.0 22:18:01 10° WSW 22:21:09 76° NNW 22:24:18 10° ENE
STARLINK-1239 3.5 22:17:05 10° WNW 22:21:15 78° SSW 22:23:39 24° ESE
STARLINK-1328 3.0 22:18:27 10° WSW 22:21:34 75° NNW 22:24:42 10° ENE
STARLINK-1354 3.0 22:18:45 10° WSW 22:21:52 75° NNW 22:25:00 10° ENE
STARLINK-1347 3.0 22:19:02 10° WSW 22:22:09 75° NNW 22:25:17 10° ENE
STARLINK-1357 3.0 22:19:28 10° WSW 22:22:34 74° NNW 22:25:43 10° ENE
Cosmos 2315 Rocket 4.1 22:16:31 10° NNW 22:22:43 75° W 22:26:32 25° S
Cosmos 2369 Rocket 4.4 22:18:08 10° W 22:22:43 25° NW 22:27:18 10° NNE
STARLINK-1335 3.0 22:19:45 10° WSW 22:22:52 74° NNW 22:26:00 10° ENE
STARLINK-1327 3.0 22:20:06 10° WSW 22:23:13 74° NNW 22:26:20 10° ENE
STARLINK-1340 3.0 22:20:24 10° WSW 22:23:32 74° NNW 22:26:39 10° ENE
Cosmos 1437 3.8 22:23:34 27° ESE 22:23:45 28° E 22:26:24 10° NNE
STARLINK-1356 3.0 22:20:47 10° WSW 22:23:54 73° NNW 22:27:02 10° ENE
STARLINK-1345 3.0 22:21:06 10° WSW 22:24:13 73° NNW 22:27:21 10° ENE
Cosmos 2227 Rocket 2.5 22:18:48 10° NNW 22:24:28 62° ENE 22:28:23 20° SE
STARLINK-1355 3.0 22:21:27 10° WSW 22:24:34 73° NNW 22:27:42 10° ENE
STARLINK-1321 3.0 22:21:48 10° WSW 22:24:55 73° NNW 22:28:03 10° ENE
STARLINK-1358 3.0 22:22:11 10° WSW 22:25:18 72° NNW 22:28:26 10° ENE
STARLINK-1332 3.0 22:22:28 10° WSW 22:25:36 72° NNW 22:28:43 10° ENE
STARLINK-1348 3.0 22:22:48 10° WSW 22:25:55 72° NNW 22:29:02 10° ENE
STARLINK-1240 3.5 22:22:02 10° WNW 22:26:11 74° SSW 22:28:23 26° SE
STARLINK-1330 3.1 22:23:09 10° WSW 22:26:15 71° NNW 22:29:23 10° ENE
STARLINK-1363 3.1 22:23:28 10° WSW 22:26:35 71° NNW 22:29:43 10° ENE
STARLINK-1337 3.1 22:23:51 10° WSW 22:26:58 71° NNW 22:30:05 10° ENE
STARLINK-1342 3.1 22:24:10 10° WSW 22:27:17 71° NNW 22:30:24 10° ENE
STARLINK-1364 3.1 22:24:30 10° WSW 22:27:37 70° NNW 22:30:45 10° ENE
STARLINK-1376 3.1 22:24:50 10° WSW 22:27:58 70° NNW 22:31:04 10° ENE
STARLINK-1360 3.1 22:25:11 10° WSW 22:28:18 70° NNW 22:31:25 10° ENE
STARLINK-1361 3.1 22:25:32 10° WSW 22:28:38 70° NNW 22:31:46 10° ENE
STARLINK-1367 3.1 22:25:48 10° WSW 22:28:55 70° NNW 22:32:04 10° ENE
STARLINK-1366 3.1 22:26:11 10° WSW 22:29:17 69° NNW 22:32:24 10° ENE
STARLINK-1338 3.5 22:26:16 10° WSW 22:30:15 86° NNW 22:34:16 10° ENE
STARLINK-1216 3.5 22:27:02 10° WNW 22:31:11 69° SSW 22:33:11 29° SE
Cosmos 1908 4.0 22:31:32 10° NNW 22:35:10 41° W 22:36:36 29° SW
Cosmos 1356 Rocket 4.0 22:31:42 10° N 22:35:50 49° ENE 22:37:47 27° SE
STARLINK-1237 3.5 22:32:01 10° WNW 22:36:08 65° SSW 22:37:58 31° SE
STARLINK-52 4.0 22:33:12 10° W 22:36:20 46° N 22:39:27 10° ENE
SL-14 R/B 3.3 22:36:22 39° SSE 22:37:34 60° E 22:41:23 10° NNE
Cosmos 2084 4.1 22:33:41 10° WSW 22:38:04 58° NW 22:42:30 10° NE
STARLINK-1371 3.5 22:34:41 10° WSW 22:38:39 80° NNW 22:42:38 10° ENE
STARLINK-1202 3.6 22:37:01 10° WNW 22:41:07 61° SSW 22:42:45 33° SE
STARLINK-1341 3.6 22:39:01 10° WSW 22:43:00 77° NNW 22:47:01 10° ENE
Terra 4.2 22:43:21 10° WSW 22:45:03 12° W 22:46:45 10° WNW
Thor Agena Rocket 4.3 22:40:36 10° N 22:45:42 49° WNW 22:49:40 16° SW
STARLINK-1203 3.6 22:41:49 10° WNW 22:45:54 58° SSW 22:47:23 35° SSE
STARLINK-1374 3.7 22:43:18 10° WSW 22:47:17 74° NNW 22:51:18 10° ENE
Cosmos 1300 2.6 22:44:07 10° N 22:47:58 89° E 22:49:12 41° S
Meteor 2-5 Rocket 3.8 22:46:11 25° SSW 22:49:32 77° WNW 22:55:15 10° N
USA 215 3.4 22:43:58 10° ESE 22:50:32 80° NNE 22:57:06 10° WNW
STARLINK-1246 3.7 22:47:00 10° WNW 22:51:03 54° SSW 22:52:19 37° SSE
STARLINK-1339 3.7 22:47:37 10° WSW 22:51:37 72° NNW 22:55:36 10° ENE
STARLINK-1444 3.9 22:52:14 10° WNW 22:54:15 32° N 22:56:18 10° ENE
STARLINK-1452 3.9 22:52:53 10° WNW 22:54:52 32° N 22:56:55 10° ENE
Cosmos 1674 4.1 22:53:25 19° WSW 22:55:27 31° WNW 22:58:54 10° N
STARLINK-1392 3.9 22:53:46 10° WNW 22:55:41 31° N 22:57:12 14° ENE
STARLINK-1399 3.9 22:53:48 10° WNW 22:55:44 31° N 22:57:22 13° ENE
STARLINK-1393 3.9 22:53:49 10° WNW 22:55:45 31° N 22:57:20 14° ENE
STARLINK-1394 3.9 22:53:50 10° WNW 22:55:47 31° N 22:57:22 14° ENE
STARLINK-1395 3.8 22:53:55 10° WNW 22:55:50 31° N 22:57:08 16° ENE
STARLINK-1397 3.9 22:53:53 10° WNW 22:55:50 31° N 22:57:29 13° ENE
STARLINK-1396 3.9 22:53:54 10° WNW 22:55:51 31° N 22:57:27 13° ENE
STARLINK-1414 3.9 22:53:55 10° WNW 22:55:51 31° N 22:57:20 14° ENE
STARLINK-1408 3.8 22:53:58 10° WNW 22:55:54 31° N 22:57:23 14° ENE
STARLINK-1404 3.9 22:53:59 10° WNW 22:55:56 31° N 22:57:34 13° ENE
STARLINK-1416 3.9 22:54:00 10° WNW 22:55:56 31° N 22:57:28 14° ENE
STARLINK-1377 3.8 22:51:58 10° W 22:55:57 70° NNW 22:59:58 10° ENE
STARLINK-1415 3.9 22:54:00 10° WNW 22:55:57 32° N 22:57:42 12° ENE
STARLINK-1406 3.9 22:54:04 10° WNW 22:55:59 31° N 22:57:26 15° ENE
STARLINK-1450 3.8 22:54:02 10° WNW 22:55:59 32° N 22:57:44 12° ENE
STARLINK-1224 3.8 22:51:58 10° WNW 22:56:00 51° SSW 22:57:05 39° SSE
STARLINK-1401 3.9 22:54:03 10° WNW 22:56:00 32° N 22:57:45 12° ENE
STARLINK-1417 3.8 22:54:07 10° WNW 22:56:04 32° N 22:57:49 12° ENE
STARLINK-1419 3.8 22:54:09 10° WNW 22:56:06 32° N 22:57:44 13° ENE
STARLINK-1413 3.8 22:54:08 10° WNW 22:56:06 32° N 22:57:50 12° ENE
STARLINK-1402 3.8 22:54:08 10° WNW 22:56:06 32° N 22:57:49 12° ENE
STARLINK-1422 3.8 22:54:14 10° WNW 22:56:11 32° N 22:57:54 12° ENE
STARLINK-1453 3.8 22:54:14 10° WNW 22:56:12 32° N 22:58:03 11° ENE
STARLINK-1398 3.8 22:54:15 10° WNW 22:56:14 32° N 22:58:14 10° ENE
STARLINK-1420 3.8 22:54:18 10° WNW 22:56:15 32° N 22:58:02 12° ENE
STARLINK-1440 3.8 22:54:19 10° WNW 22:56:17 32° N 22:58:06 12° ENE
STARLINK-1436 (VISORSAT) 3.8 22:54:19 10° WNW 22:56:18 32° N 22:58:19 10° ENE
STARLINK-1460 3.8 22:54:20 10° WNW 22:56:18 32° N 22:58:05 12° ENE
STARLINK-1410 3.8 22:54:25 10° WNW 22:56:22 32° N 22:58:07 12° ENE
STARLINK-1423 3.8 22:54:26 10° WNW 22:56:23 32° N 22:58:00 13° ENE
STARLINK-1421 3.8 22:54:26 10° WNW 22:56:23 32° N 22:58:00 13° ENE
STARLINK-1400 3.8 22:54:25 10° WNW 22:56:23 32° N 22:58:08 12° ENE
STARLINK-1454 3.8 22:54:26 10° WNW 22:56:24 32° N 22:58:10 12° ENE
YAOGAN 11 4.2 22:54:28 31° SSE 22:56:26 69° ENE 23:00:43 10° N
STARLINK-1458 3.8 22:54:29 10° WNW 22:56:26 32° N 22:58:08 13° ENE
STARLINK-1445 3.8 22:54:31 10° WNW 22:56:29 32° N 22:58:19 11° ENE
STARLINK-1407 3.8 22:54:33 10° WNW 22:56:30 32° N 22:58:20 12° ENE
STARLINK-1405 3.8 22:54:36 10° WNW 22:56:31 31° N 22:57:51 16° ENE
STARLINK-1446 3.8 22:54:33 10° WNW 22:56:31 32° N 22:58:21 11° ENE
STARLINK-1370 3.8 22:54:36 10° WNW 22:56:33 32° N 22:58:22 12° ENE
STARLINK-1456 3.8 22:54:37 10° WNW 22:56:34 32° N 22:58:16 13° ENE
STARLINK-1457 3.8 22:54:37 10° WNW 22:56:35 32° N 22:58:16 13° ENE
STARLINK-1451 3.8 22:54:38 10° WNW 22:56:35 32° N 22:58:16 13° ENE
STARLINK-1439 3.8 22:54:40 10° WNW 22:56:35 31° N 22:57:54 16° ENE
STARLINK-1409 3.8 22:54:38 10° WNW 22:56:35 32° N 22:58:17 13° ENE
STARLINK-1447 3.8 22:54:38 10° WNW 22:56:36 32° N 22:58:25 12° ENE
STARLINK-1455 3.8 22:54:39 10° WNW 22:56:36 32° N 22:58:25 12° ENE
STARLINK-1437 3.8 22:54:39 10° WNW 22:56:37 32° N 22:58:21 12° ENE
STARLINK-1441 3.8 22:54:41 10° WNW 22:56:38 32° N 22:58:28 12° ENE
STARLINK-1443 3.8 22:54:43 10° WNW 22:56:41 32° N 22:58:36 11° ENE
STARLINK-1351 3.8 22:54:45 10° WNW 22:56:43 32° N 22:58:33 12° ENE
STARLINK-1418 3.8 22:54:45 10° WNW 22:56:43 32° N 22:58:32 12° ENE
STARLINK-1403 3.8 22:54:45 10° WNW 22:56:44 32° N 22:58:36 11° ENE
STARLINK-1434 3.8 22:54:45 10° WNW 22:56:44 32° N 22:58:38 11° ENE
STARLINK-1442 3.8 22:54:46 10° WNW 22:56:44 32° N 22:58:34 12° ENE
STARLINK-1448 3.8 22:54:48 10° WNW 22:56:46 32° N 22:58:35 12° ENE
STARLINK-1433 3.8 22:54:49 10° WNW 22:56:46 32° N 22:58:35 12° ENE
STARLINK-1449 3.8 22:54:51 10° WNW 22:56:49 32° N 22:58:40 11° ENE
STARLINK-1438 3.8 22:54:54 10° WNW 22:56:51 32° N 22:58:32 13° ENE
STARLINK-1411 3.8 22:55:01 10° WNW 22:56:58 32° N 22:58:44 12° ENE
STARLINK-1412 3.8 22:55:01 10° WNW 22:56:59 32° N 22:58:48 12° ENE
Cosmos 1626 Rocket 4.0 22:57:33 32° SSE 22:59:11 50° E 23:03:26 10° NNE
STARLINK-1353 3.8 22:56:17 10° W 23:00:17 67° NNW 23:04:17 10° ENE
STARLINK-1225 3.9 22:56:58 10° WNW 23:00:59 47° SSW 23:01:52 40° S
ATLAS 3B R/B 4.2 22:57:25 10° WNW 23:02:23 22° WSW 23:05:21 17° SW
FALCON 9 DEB 4.1 23:00:29 10° W 23:03:49 48° N 23:07:11 10° ENE
Cosmos 2292 4.1 23:01:07 10° N 23:04:16 79° E 23:04:47 57° SSE
SeaSat 1 2.5 22:59:26 10° NNE 23:04:23 76° WNW 23:07:35 22° SW
STARLINK-60 3.9 23:01:30 10° WNW 23:04:36 49° N 23:07:43 10° E
STARLINK-1375 3.9 23:00:39 10° W 23:04:39 66° NNW 23:08:39 10° ENE
STARLINK-1230 3.9 23:01:57 10° WNW 23:05:54 44° SW 23:06:38 40° S
FALCON 9 R/B 4.3 23:08:51 17° SE 23:08:51 17° SE 23:13:01 10° ESE
Cosmos 2058 Rocket 3.7 23:03:48 10° NNW 23:08:05 47° W 23:09:53 30° SSW
BREEZE M DEB (TANK) 4.2 23:06:24 10° W 23:06:47 13° W 23:06:47 13° W
STARLINK-1350 3.9 23:04:59 10° W 23:08:59 64° NNW 23:12:58 10° ENE
Uosat 12 SS-18 rocket 4.3 23:05:36 10° NW 23:09:54 66° NE 23:13:05 18° SE
STARLINK-1243 4.0 23:06:58 10° WNW 23:10:53 41° SW 23:11:26 39° SSW
Cosmos 1980 Rocket 3.6 23:10:05 19° SE 23:12:25 25° ESE 23:16:57 10° NE
Helios 1B rocket 3.4 23:08:50 10° NNE 23:12:39 35° E 23:14:04 27° SE
STARLINK-1352 4.0 23:09:19 10° W 23:13:17 62° NNW 23:17:17 10° ENE
STARLINK-1236 4.1 23:11:57 10° WNW 23:15:50 38° SW 23:16:12 37° SSW
ALOS 2 3.6 23:14:35 26° SW 23:16:12 35° W 23:20:15 10° NNW
Cosmos 468 Rocket 4.1 23:14:14 32° S 23:16:31 62° ESE 23:21:36 10° NNE
STARLINK-1368 4.1 23:13:50 10° W 23:17:49 61° NNW 23:21:49 10° ENE
Cosmos 1745 Rocket 4.0 23:16:47 28° S 23:20:13 77° E 23:26:22 10° NNE
ERBS 2.3 23:18:52 10° WNW 23:22:07 53° SW 23:22:16 52° SSW
STARLINK-1369 4.1 23:18:16 10° W 23:22:15 59° N 23:26:14 10° ENE
Cosmos 1626 3.1 23:20:51 27° WSW 23:22:18 39° WNW 23:25:50 10° N
Cosmos 2369 4.1 23:20:09 28° S 23:22:46 49° ESE 23:28:13 10° NE
Cosmos 1455 2.8 23:19:58 10° N 23:23:37 47° ENE 23:25:11 28° SE
Meteor 1-29 4.4 23:20:58 10° NE 23:23:46 25° E 23:24:32 22° ESE
Cosmos 1937 Rocket 3.5 23:18:37 10° NNW 23:23:55 84° ENE 23:27:02 25° SSE
Cosmos 1812 Rocket 3.6 23:20:39 10° N 23:25:08 82° E 23:27:04 33° SSE
STARLINK-1269 4.3 23:21:59 10° WNW 23:25:45 33° SW 23:25:46 33° SW
Cosmos 2263 Rocket 3.7 23:21:21 10° NNW 23:26:25 33° NE 23:31:26 10° ESE
STARLINK-1372 4.1 23:22:36 10° W 23:26:34 58° N 23:30:32 10° ENE
STARLINK-43 3.3 23:26:08 45° SSW 23:26:56 58° SSE 23:30:34 10° ENE
STARLINK-55 4.2 23:28:11 28° ESE 23:28:11 28° ESE 23:30:19 10° E
Alouette 2 Rocket 4.2 23:23:20 10° N 23:28:15 51° ENE 23:30:22 24° SE
Lacrosse 4 Rocket 1.4 23:25:15 10° NW 23:29:32 64° WSW 23:31:03 36° S
Meteor 1-24 Rocket 4.3 23:27:06 21° SW 23:30:28 48° WNW 23:35:53 10° N
Cosmos 2297 Rocket 2.8 23:25:18 10° NW 23:30:35 42° WSW 23:32:59 28° SSW
STARLINK-1200 4.4 23:27:00 10° WNW 23:30:33 31° SW 23:30:33 31° SW
STARLINK-1378 4.2 23:27:08 10° W 23:31:06 57° N 23:35:05 10° ENE
Cosmos 1656 3.7 23:27:54 25° SSW 23:31:19 82° WNW 23:36:57 10° NNE
Cosmos 921 Rocket 4.5 23:29:32 15° WSW 23:32:32 31° WNW 23:36:30 10° N
Cosmos 1898 Rocket 3.6 23:27:22 10° NNW 23:32:39 64° WSW 23:35:13 30° S
Cosmos 2219 4.1 23:29:24 10° NW 23:34:23 33° WSW 23:36:34 24° SW
CZ-4C R/B 2.1 23:31:35 28° SSW 23:34:26 76° SE 23:40:32 10° NE
SL-4 R/B 2.5 23:30:36 10° WNW 23:35:28 81° NNE 23:40:17 10° E
STARLINK-1379 4.2 23:31:38 10° W 23:35:37 56° N 23:39:35 10° ENE
Cosmos 1602 Rocket 3.4 23:35:23 35° SSW 23:37:09 87° W 23:41:31 10° N
STARLINK-29 3.9 23:34:12 10° WNW 23:37:21 49° N 23:40:28 10° E
STARLINK-28 3.5 23:39:11 39° SE 23:39:11 39° SE 23:41:55 10° ENE
STARLINK-1329 4.3 23:35:25 10° W 23:39:24 55° N 23:43:22 10° ENE
PSLV R/B 3.6 23:37:34 10° NNE 23:42:01 72° ESE 23:43:52 33° S
Cosmos 990 Rocket 4.3 23:37:11 10° NNW 23:42:17 51° WSW 23:44:36 30° SSW
STARLINK-1207 4.4 23:42:54 29° SE 23:42:54 29° SE 23:46:05 10° E
Cosmos 1386 Rocket 4.5 23:39:47 27° SSW 23:43:23 80° W 23:49:42 10° N
STARLINK-1362 4.3 23:39:57 10° W 23:43:55 55° N 23:47:55 10° ENE
ATLAS CENTAUR R/B 2.5 23:42:10 10° WNW 23:43:35 26° WSW 23:43:35 26° WSW
Cosmos 2082 3.8 23:39:37 10° NW 23:45:12 61° WSW 23:48:10 27° S
STARLINK-1266 4.3 23:46:09 31° SE 23:46:10 31° SE 23:49:30 10° E
STARLINK-1373 4.3 23:44:31 10° W 23:48:29 54° N 23:52:28 10° ENE
Helios 1A 4.2 23:47:33 24° SW 23:48:50 28° W 23:52:29 10° NW
STARLINK-33 3.4 23:49:37 41° SE 23:49:37 41° SE 23:52:22 10° ENE
STARLINK-1284 4.2 23:49:24 32° SSE 23:49:32 32° SE 23:52:55 10° ENE
Cosmos 2322 Rocket 4.4 23:49:00 10° ESE 23:51:32 13° E 23:54:02 10° ENE
Cosmos 1814 Rocket 4.5 23:49:00 27° SSE 23:51:40 50° ESE 23:56:48 10° NNE
STARLINK-26 3.3 23:51:18 46° S 23:51:41 48° SSE 23:55:00 10° ENE
STARLINK-1320 4.1 23:49:08 10° WNW 23:52:09 43° N 23:55:10 10° ENE
STARLINK-1322 4.1 23:49:30 10° WNW 23:52:30 43° N 23:55:32 10° ENE
Meteor 2-1 Rocket 4.4 23:47:15 10° NNW 23:52:41 57° W 23:55:37 27° SSW
STARLINK-1324 4.1 23:49:48 10° WNW 23:52:49 43° N 23:55:50 10° ENE
STARLINK-1258 4.1 23:52:43 33° SSE 23:52:57 34° SE 23:56:22 10° ENE
STARLINK-1390 4.3 23:49:04 10° W 23:53:03 54° N 23:57:02 10° ENE
STARLINK-1294 4.1 23:50:07 10° WNW 23:53:08 43° N 23:56:10 10° ENE
Cosmos 2181 Rocket 4.3 23:46:46 10° N 23:53:14 69° ENE 23:58:00 19° SSE
STARLINK-1261 4.1 23:50:31 10° WNW 23:53:31 43° N 23:56:32 10° ENE
STARLINK-1325 4.1 23:50:51 10° WNW 23:53:52 43° N 23:56:53 10° ENE
ATLAS CENTAUR R/B 4.4 23:52:19 10° NW 23:54:08 13° NNW 23:55:55 10° N
STARLINK-1333 4.1 23:51:13 10° WNW 23:54:14 43° N 23:57:15 10° ENE
STARLINK-1334 4.1 23:51:31 10° WNW 23:54:31 43° N 23:57:32 10° ENE
STARLINK-1326 4.1 23:51:50 10° WNW 23:54:51 43° N 23:57:51 10° ENE
STARLINK-1323 4.1 23:52:13 10° WNW 23:55:14 43° N 23:58:15 10° ENE
STARLINK-1349 4.1 23:52:31 10° WNW 23:55:32 43° N 23:58:32 10° ENE
STARLINK-1336 4.1 23:52:51 10° WNW 23:55:51 43° N 23:58:52 10° ENE
STARLINK-1331 4.1 23:53:13 10° WNW 23:56:14 43° N 23:59:15 10° ENE
STARLINK-1292 4.0 23:56:00 35° SSE 23:56:21 36° SE 23:59:49 10° ENE
STARLINK-1344 4.1 23:53:32 10° WNW 23:56:33 43° N 23:59:33 10° ENE
STARLINK-1343 4.1 23:53:54 10° WNW 23:56:55 43° N 23:59:56 10° ENE
